GFSGL_500_temp_036.txt.gz
Temp
-20 -20 -21 -21 -22 -22 -22 -22 -22 -22 -22 -22 -22 -22 -22 -22 -22 -22 -22 -22 -22 -22 -22 -22 -22 -22 -22 -22 -22 -21 -21 -21 -18 -18 -18 -18 -17 -18 -18 -18 -17 -17 -16
-21 -21 -21 -22 -22 -22 -22 -22 -22 -23 -23 -23 -23 -23 -23 -23 -23 -23 -23 -22 -22 -22 -22 -22 -22 -22 -22 -22 -22 -22 -22 -21 -21 -19 -20 -19 -19 -19 -18 -19 -18 -18 -18
-22 -22 -23 -23 -23 -23 -23 -23 -23 -23 -23 -23 -23 -23 -24 -24 -24 -24 -23 -23 -23 -23 -23 -23 -23 -23 -22 -23 -22 -22 -22 -21 -21 -21 -20 -20 -21 -20 -20 -19 -19 -19 -18
-23 -24 -23 -24 -24 -24 -24 -24 -24 -24 -24 -24 -24 -25 -25 -25 -25 -25 -25 -25 -25 -25 -25 -24 -24 -24 -23 -23 -23 -23 -22 -22 -22 -21 -21 -20 -20 -21 -21 -21 -21 -20 -19
-24 -24 -24 -24 -24 -24 -24 -25 -25 -25 -25 -26 -26 -27 -28 -29 -29 -29 -29 -29 -28 -28 -28 -27 -27 -26 -25 -24 -23 -23 -23 -23 -23 -22 -22 -21 -20 -20 -21 -22 -21 -21 -20
-25 -25 -25 -25 -25 -25 -25 -26 -27 -28 -29 -29 -30 -30 -31 -31 -31 -31 -31 -30 -30 -30 -29 -29 -29 -28 -28 -27 -26 -25 -24 -23 -23 -23 -22 -22 -22 -21 -21 -22 -22 -21 -21
-26 -26 -26 -26 -26 -26 -28 -29 -30 -30 -31 -31 -31 -31 -31 -31 -31 -31 -31 -31 -30 -30 -30 -29 -29 -29 -28 -28 -28 -28 -27 -26 -25 -24 -23 -23 -23 -22 -22 -21 -22 -22 -21
-26 -26 -27 -27 -28 -29 -31 -31 -32 -32 -32 -32 -32 -32 -32 -32 -31 -31 -31 -31 -30 -30 -30 -29 -29 -29 -29 -29 -28 -28 -28 -28 -28 -27 -27 -25 -25 -24 -24 -23 -22 -22 -22
-27 -28 -29 -30 -31 -32 -32 -32 -32 -32 -32 -32 -32 -32 -32 -32 -32 -32 -31 -31 -31 -30 -30 -30 -29 -29 -29 -29 -29 -29 -29 -29 -29 -29 -28 -28 -27 -27 -26 -25 -24 -23 -22
-29 -30 -32 -32 -32 -33 -33 -33 -33 -33 -33 -33 -33 -33 -33 -32 -32 -32 -32 -31 -31 -31 -32 -31 -31 -31 -31 -31 -30 -30 -30 -31 -30 -30 -30 -29 -29 -29 -28 -28 -27 -26 -25
-32 -32 -33 -33 -33 -33 -33 -33 -33 -33 -33 -33 -33 -33 -33 -33 -33 -33 -33 -33 -33 -32 -31 -31 -31 -31 -31 -30 -31 -31 -31 -31 -31 -31 -31 -31 -31 -31 -30 -30 -29 -28 -27
-33 -33 -33 -33 -33 -33 -33 -34 -34 -34 -34 -34 -34 -34 -34 -34 -34 -35 -34 -34 -33 -32 -32 -31 -31 -31 -31 -31 -31 -31 -31 -31 -31 -31 -31 -31 -31 -31 -31 -30 -30 -30 -28
-33 -34 -34 -34 -34 -34 -34 -34 -34 -35 -35 -35 -34 -34 -34 -35 -35 -35 -35 -34 -34 -33 -32 -32 -31 -31 -31 -31 -31 -32 -32 -32 -32 -31 -31 -31 -31 -30 -30 -31 -31 -30 -29
-34 -34 -34 -35 -35 -35 -35 -35 -35 -35 -35 -35 -35 -35 -35 -35 -35 -35 -34 -34 -33 -33 -33 -32 -32 -31 -31 -31 -31 -31 -31 -32 -32 -32 -32 -31 -31 -31 -31 -31 -31 -31 -30
-35 -35 -35 -35 -35 -35 -36 -36 -36 -36 -36 -36 -36 -35 -35 -35 -35 -35 -34 -33 -33 -33 -32 -32 -32 -32 -32 -32 -32 -32 -32 -33 -33 -33 -33 -32 -32 -32 -32 -32 -32 -31 -30
-35 -36 -36 -36 -36 -36 -36 -37 -37 -37 -37 -37 -37 -36 -35 -35 -35 -34 -34 -34 -33 -33 -33 -32 -32 -32 -32 -32 -32 -32 -33 -33 -33 -33 -33 -33 -33 -33 -33 -32 -32 -31 -31
-36 -36 -36 -36 -37 -37 -37 -37 -38 -38 -38 -38 -37 -36 -36 -36 -35 -35 -34 -34 -33 -33 -32 -32 -32 -32 -32 -32 -32 -32 -33 -34 -34 -34 -33 -34 -34 -34 -34 -33 -33 -33 -32
-37 -37 -37 -37 -37 -38 -38 -38 -38 -38 -39 -39 -38 -37 -36 -36 -35 -35 -34 -34 -34 -33 -32 -32 -32 -32 -32 -32 -33 -33 -34 -35 -35 -35 -34 -34 -35 -35 -34 -34 -34 -34 -33
-37 -37 -37 -37 -38 -39 -39 -39 -39 -39 -38 -38 -38 -38 -37 -36 -35 -35 -34 -34 -34 -33 -33 -33 -33 -33 -33 -34 -34 -35 -35 -35 -35 -35 -36 -36 -36 -36 -35 -34 -35 -34 -34
-37 -37 -38 -38 -39 -39 -39 -39 -39 -39 -38 -38 -38 -37 -37 -36 -36 -35 -34 -34 -34 -34 -34 -34 -34 -34 -35 -35 -36 -36 -35 -35 -35 -36 -36 -37 -37 -36 -36 -35 -35 -35 -34
-38 -39 -39 -39 -39 -39 -39 -39 -39 -39 -39 -38 -38 -37 -37 -36 -36 -35 -35 -35 -35 -35 -35 -35 -35 -36 -36 -36 -36 -36 -35 -35 -35 -36 -36 -37 -37 -37 -37 -36 -35 -35 -35
-39 -39 -40 -40 -39 -39 -40 -39 -39 -39 -39 -38 -38 -37 -36 -36 -35 -35 -35 -35 -35 -35 -35 -36 -36 -37 -37 -37 -36 -36 -35 -35 -36 -36 -36 -36 -37 -37 -37 -37 -36 -36 -36
-40 -40 -40 -40 -40 -40 -40 -40 -39 -39 -39 -38 -37 -37 -36 -36 -35 -35 -35 -35 -35 -36 -36 -36 -36 -37 -37 -37 -36 -36 -36 -36 -36 -36 -36 -36 -37 -37 -38 -38 -37 -37 -36
-40 -40 -40 -40 -39 -39 -39 -39 -39 -39 -39 -38 -37 -37 -36 -36 -36 -35 -35 -35 -36 -36 -36 -37 -37 -37 -37 -37 -37 -37 -36 -36 -36 -36 -36 -36 -36 -37 -37 -38 -37 -37 -37
-38 -38 -38 -38 -38 -38 -38 -39 -39 -39 -38 -37 -37 -37 -36 -36 -36 -36 -36 -36 -36 -36 -37 -37 -37 -37 -37 -37 -37 -37 -37 -37 -36 -36 -36 -36 -36 -37 -37 -37 -37 -38 -37
-38 -38 -38 -38 -38 -38 -38 -38 -38 -38 -38 -37 -37 -36 -36 -36 -36 -36 -36 -36 -36 -36 -37 -37 -38 -38 -38 -37 -37 -37 -37 -38 -37 -37 -37 -36 -36 -37 -37 -37 -37 -37 -37

GFSGL_500_temp_042.txt.gz
Temp
-18 -18 -18 -18 -18 -18 -19 -19 -19 -20 -21 -21 -22 -22 -23 -23 -23 -23 -23 -24 -24 -24 -24 -24 -24 -24 -24 -24 -24 -23 -23 -23 -23 -22 -22 -21 -21 -21 -22 -22 -21 -21 -20
-18 -18 -18 -19 -19 -19 -20 -20 -21 -22 -22 -23 -23 -23 -24 -24 -24 -24 -24 -25 -25 -25 -25 -24 -24 -24 -24 -24 -24 -24 -23 -23 -23 -22 -22 -22 -22 -22 -22 -22 -22 -21 -21
-19 -19 -19 -19 -19 -20 -21 -22 -23 -23 -23 -24 -24 -24 -24 -25 -25 -25 -25 -25 -25 -25 -26 -26 -26 -26 -26 -26 -25 -25 -25 -25 -25 -24 -22 -22 -22 -22 -22 -22 -22 -22 -22
-19 -19 -20 -20 -21 -21 -22 -23 -24 -24 -24 -25 -25 -26 -26 -26 -26 -26 -26 -26 -26 -27 -27 -28 -29 -29 -29 -29 -29 -29 -29 -28 -28 -27 -26 -25 -24 -23 -22 -22 -22 -22 -22
-20 -20 -21 -21 -22 -23 -24 -24 -25 -25 -26 -26 -26 -26 -27 -27 -27 -27 -28 -28 -29 -30 -30 -30 -31 -31 -31 -30 -30 -30 -30 -29 -29 -29 -28 -28 -27 -26 -25 -24 -23 -23 -22
-21 -22 -23 -23 -24 -25 -25 -26 -26 -26 -26 -27 -27 -28 -28 -29 -29 -30 -30 -31 -31 -31 -31 -31 -31 -31 -31 -30 -30 -30 -30 -30 -30 -29 -29 -29 -28 -28 -27 -26 -25 -24 -23
-22 -23 -24 -25 -25 -26 -26 -26 -27 -27 -28 -28 -29 -30 -30 -31 -31 -32 -32 -32 -32 -32 -32 -32 -32 -32 -31 -31 -31 -31 -31 -31 -31 -30 -29 -29 -29 -28 -28 -28 -27 -26 -25
-24 -25 -25 -26 -26 -26 -27 -27 -28 -29 -29 -30 -31 -31 -32 -32 -32 -33 -32 -32 -32 -32 -32 -32 -32 -32 -32 -32 -31 -32 -32 -32 -33 -31 -31 -30 -29 -29 -29 -28 -28 -28 -27
-25 -26 -26 -26 -26 -27 -27 -28 -29 -30 -31 -31 -32 -33 -33 -33 -33 -33 -33 -33 -33 -33 -33 -33 -33 -33 -32 -32 -32 -32 -33 -33 -33 -32 -31 -31 -31 -31 -31 -30 -30 -29 -28
-26 -26 -26 -26 -27 -28 -29 -30 -31 -32 -32 -33 -33 -33 -33 -34 -34 -34 -34 -34 -34 -34 -34 -34 -34 -33 -33 -33 -33 -33 -33 -33 -33 -32 -32 -31 -31 -31 -31 -31 -30 -30 -30
-26 -27 -27 -28 -28 -29 -30 -31 -32 -33 -33 -33 -34 -34 -34 -34 -34 -34 -34 -34 -34 -34 -34 -34 -34 -33 -33 -33 -34 -33 -33 -32 -32 -32 -32 -32 -32 -31 -31 -31 -31 -31 -31
-27 -28 -28 -29 -29 -30 -31 -32 -33 -33 -34 -34 -34 -35 -35 -35 -35 -35 -35 -35 -35 -34 -34 -34 -34 -33 -34 -34 -34 -34 -33 -33 -32 -32 -32 -32 -32 -31 -31 -31 -31 -31 -30
-28 -29 -29 -30 -31 -32 -32 -33 -34 -34 -34 -35 -35 -35 -35 -35 -36 -36 -36 -35 -35 -35 -35 -35 -35 -34 -34 -35 -35 -34 -34 -33 -33 -32 -32 -32 -31 -31 -31 -31 -31 -31 -31
-29 -30 -30 -31 -32 -32 -33 -34 -34 -34 -35 -35 -35 -35 -35 -36 -36 -36 -36 -36 -36 -36 -36 -36 -36 -35 -35 -35 -35 -34 -34 -33 -32 -32 -32 -32 -32 -31 -31 -31 -31 -32 -31
-30 -31 -32 -32 -33 -33 -34 -34 -35 -35 -35 -35 -36 -36 -36 -36 -37 -37 -37 -37 -37 -37 -37 -36 -36 -36 -36 -35 -35 -34 -33 -33 -33 -32 -32 -31 -31 -31 -32 -32 -32 -32 -32
-32 -32 -33 -33 -34 -34 -35 -35 -36 -36 -36 -36 -36 -36 -36 -37 -38 -38 -39 -39 -38 -38 -38 -37 -37 -36 -36 -35 -35 -34 -34 -34 -33 -33 -32 -32 -32 -32 -32 -33 -33 -33 -34
-33 -33 -34 -34 -35 -35 -36 -36 -36 -37 -37 -37 -37 -37 -37 -38 -38 -39 -39 -39 -39 -39 -38 -38 -37 -37 -36 -35 -35 -35 -34 -34 -34 -34 -33 -33 -33 -34 -35 -35 -35 -35 -35
-34 -34 -35 -36 -36 -36 -36 -37 -37 -37 -37 -38 -38 -38 -38 -39 -39 -39 -40 -39 -39 -39 -38 -38 -37 -37 -36 -35 -35 -35 -35 -35 -35 -35 -35 -35 -36 -36 -35 -35 -35 -35 -36
-35 -36 -36 -36 -37 -37 -37 -37 -37 -38 -38 -38 -38 -38 -39 -39 -40 -40 -40 -40 -40 -39 -39 -38 -37 -36 -36 -36 -36 -35 -35 -36 -36 -36 -36 -36 -36 -35 -35 -35 -35 -36 -36
-36 -36 -36 -36 -36 -37 -37 -38 -38 -38 -38 -38 -39 -39 -40 -40 -40 -40 -40 -40 -40 -40 -39 -38 -37 -36 -36 -36 -36 -36 -36 -36 -36 -37 -37 -36 -36 -35 -35 -35 -36 -36 -36
-36 -36 -37 -37 -37 -37 -38 -38 -38 -38 -38 -39 -39 -40 -40 -40 -40 -40 -40 -40 -40 -39 -38 -38 -37 -36 -36 -36 -36 -36 -37 -37 -37 -37 -37 -37 -36 -36 -36 -35 -36 -36 -36
-37 -37 -37 -37 -38 -38 -38 -38 -38 -38 -39 -39 -39 -39 -39 -40 -40 -40 -40 -40 -40 -39 -38 -38 -37 -37 -37 -37 -37 -37 -37 -37 -37 -37 -37 -37 -37 -37 -36 -36 -36 -36 -36
-37 -37 -37 -38 -38 -38 -38 -38 -38 -39 -39 -39 -39 -39 -39 -39 -39 -40 -40 -39 -39 -38 -38 -37 -37 -37 -37 -37 -37 -37 -37 -37 -37 -37 -38 -37 -37 -37 -37 -36 -36 -36 -36
-37 -37 -37 -38 -38 -38 -38 -39 -39 -39 -39 -39 -39 -39 -39 -39 -39 -39 -39 -39 -39 -38 -37 -37 -37 -37 -37 -37 -37 -37 -37 -37 -38 -38 -38 -37 -37 -37 -37 -37 -37 -37 -37
-37 -38 -38 -38 -38 -38 -39 -39 -39 -39 -39 -39 -39 -39 -39 -39 -39 -39 -39 -39 -38 -38 -37 -37 -37 -37 -37 -37 -37 -37 -37 -37 -37 -38 -38 -38 -37 -37 -37 -37 -37 -37 -37
-38 -38 -38 -38 -38 -39 -39 -39 -39 -39 -39 -39 -39 -39 -39 -39 -39 -39 -38 -38 -38 -37 -37 -37 -37 -37 -37 -37 -37 -37 -37 -37 -37 -38 -38 -38 -38 -38 -38 -38 -38 -38 -37

GFSGL_500_temp_045.txt.gz
Temp
-17 -17 -17 -17 -17 -17 -17 -17 -17 -18 -18 -18 -19 -19 -20 -21 -21 -22 -23 -23 -24 -24 -24 -25 -25 -25 -25 -25 -25 -25 -25 -25 -24 -23 -23 -23 -23 -23 -23 -23 -23 -22 -22
-17 -17 -17 -17 -18 -18 -18 -18 -18 -18 -19 -19 -20 -20 -21 -22 -23 -24 -24 -24 -24 -25 -25 -25 -25 -26 -26 -26 -26 -26 -26 -27 -26 -25 -24 -24 -24 -23 -23 -23 -23 -23 -23
-17 -17 -18 -18 -18 -18 -19 -19 -19 -19 -19 -20 -21 -22 -23 -24 -24 -24 -24 -25 -25 -26 -26 -27 -27 -28 -28 -29 -29 -29 -29 -29 -29 -29 -27 -27 -26 -25 -24 -24 -23 -23 -23
-18 -18 -18 -19 -19 -19 -19 -20 -20 -20 -20 -21 -22 -23 -24 -25 -25 -25 -25 -26 -27 -28 -28 -29 -29 -30 -30 -30 -31 -31 -31 -31 -30 -30 -30 -29 -29 -28 -27 -26 -25 -25 -24
-18 -19 -19 -19 -20 -20 -20 -20 -20 -21 -22 -23 -24 -25 -25 -26 -26 -26 -27 -28 -28 -29 -30 -31 -31 -31 -32 -32 -31 -32 -31 -31 -30 -30 -30 -29 -29 -29 -28 -28 -27 -26 -26
-19 -20 -20 -20 -20 -20 -21 -21 -22 -23 -24 -25 -25 -26 -26 -26 -27 -28 -29 -29 -30 -31 -32 -32 -32 -32 -32 -32 -32 -32 -32 -31 -31 -31 -30 -30 -30 -30 -29 -29 -29 -28 -27
-20 -21 -21 -21 -21 -21 -22 -23 -24 -25 -25 -26 -26 -27 -27 -28 -29 -30 -30 -31 -32 -32 -32 -33 -33 -33 -32 -32 -32 -32 -32 -32 -32 -32 -31 -31 -31 -31 -31 -30 -30 -29 -29
-21 -21 -21 -22 -23 -23 -24 -25 -25 -25 -26 -27 -27 -27 -28 -29 -30 -31 -32 -32 -32 -33 -33 -33 -33 -33 -33 -33 -33 -33 -33 -33 -33 -32 -32 -32 -32 -32 -32 -32 -31 -31 -30
-22 -22 -23 -23 -24 -25 -26 -26 -26 -27 -27 -27 -28 -29 -30 -31 -32 -32 -33 -33 -33 -33 -33 -33 -33 -34 -34 -34 -34 -33 -33 -33 -33 -33 -33 -33 -33 -33 -32 -32 -31 -31 -31
-23 -23 -24 -25 -25 -25 -26 -26 -27 -27 -28 -28 -29 -30 -31 -32 -33 -33 -33 -33 -34 -34 -34 -34 -34 -34 -34 -34 -34 -33 -33 -33 -33 -33 -34 -34 -33 -33 -32 -32 -32 -31 -31
-24 -24 -25 -25 -26 -26 -27 -27 -27 -28 -29 -29 -31 -32 -32 -33 -33 -34 -34 -34 -34 -34 -34 -34 -35 -35 -34 -34 -34 -34 -33 -33 -34 -34 -34 -33 -33 -33 -32 -32 -32 -31 -31
-24 -25 -26 -26 -27 -28 -28 -28 -28 -29 -30 -31 -32 -33 -33 -34 -34 -34 -35 -35 -35 -35 -35 -35 -36 -35 -35 -35 -34 -34 -34 -34 -34 -34 -34 -34 -33 -33 -32 -32 -32 -32 -31
-25 -26 -27 -28 -28 -28 -28 -29 -30 -31 -32 -32 -33 -34 -34 -34 -35 -35 -36 -36 -36 -36 -36 -36 -37 -36 -36 -36 -36 -35 -35 -35 -35 -35 -34 -34 -33 -33 -32 -32 -32 -32 -31
-27 -27 -28 -28 -29 -29 -30 -31 -31 -32 -33 -34 -34 -35 -35 -35 -36 -36 -36 -37 -37 -37 -37 -37 -38 -38 -38 -38 -37 -36 -36 -36 -36 -35 -35 -34 -33 -33 -33 -32 -32 -32 -31
-28 -28 -29 -29 -30 -30 -31 -32 -33 -34 -34 -35 -35 -36 -36 -36 -36 -37 -37 -38 -38 -38 -38 -38 -39 -39 -39 -39 -38 -37 -37 -36 -36 -35 -34 -34 -34 -33 -33 -32 -32 -32 -32
-29 -29 -30 -30 -31 -32 -33 -34 -34 -35 -35 -36 -36 -36 -36 -37 -37 -38 -38 -38 -38 -38 -39 -39 -39 -40 -39 -39 -38 -38 -37 -36 -36 -35 -35 -34 -34 -34 -33 -33 -33 -33 -33
-30 -30 -31 -32 -32 -33 -34 -35 -35 -36 -36 -36 -36 -37 -37 -37 -38 -38 -38 -38 -38 -39 -40 -40 -40 -40 -40 -39 -38 -38 -37 -36 -36 -36 -35 -35 -35 -35 -35 -35 -35 -35 -35
-31 -31 -32 -33 -34 -35 -35 -35 -36 -36 -36 -36 -37 -37 -38 -38 -38 -38 -38 -38 -38 -40 -40 -40 -40 -40 -40 -39 -38 -38 -37 -37 -36 -36 -36 -36 -36 -36 -36 -36 -36 -35 -35
-32 -33 -33 -34 -35 -35 -36 -36 -36 -37 -37 -37 -37 -38 -38 -38 -38 -38 -38 -39 -40 -40 -40 -40 -40 -40 -40 -39 -38 -38 -37 -37 -37 -37 -36 -36 -36 -36 -36 -36 -36 -35 -35
-33 -34 -34 -35 -36 -36 -36 -37 -37 -37 -37 -37 -38 -38 -38 -38 -38 -38 -39 -39 -40 -40 -40 -40 -40 -40 -40 -39 -38 -38 -37 -37 -37 -37 -37 -37 -37 -37 -37 -37 -36 -36 -36
-34 -35 -35 -36 -36 -36 -36 -37 -37 -37 -37 -38 -38 -38 -38 -38 -38 -39 -39 -39 -39 -39 -40 -40 -40 -40 -40 -38 -38 -38 -37 -37 -37 -37 -37 -37 -37 -37 -37 -37 -37 -37 -36
-35 -35 -36 -36 -36 -36 -37 -37 -37 -38 -38 -38 -38 -38 -38 -38 -39 -39 -39 -39 -39 -39 -39 -39 -40 -40 -39 -38 -38 -37 -37 -37 -37 -37 -37 -37 -37 -37 -37 -37 -37 -37 -37
-36 -36 -36 -36 -37 -37 -38 -38 -38 -38 -38 -38 -38 -38 -38 -39 -39 -39 -39 -40 -40 -39 -39 -39 -39 -39 -38 -38 -37 -37 -37 -37 -37 -37 -37 -37 -38 -37 -37 -37 -37 -37 -37
-37 -37 -37 -37 -37 -38 -38 -38 -38 -39 -38 -38 -38 -39 -39 -39 -39 -39 -40 -40 -40 -39 -39 -39 -39 -39 -38 -38 -37 -37 -37 -37 -37 -37 -37 -38 -38 -38 -38 -37 -37 -37 -37
-37 -37 -37 -38 -38 -39 -39 -39 -39 -39 -39 -39 -39 -39 -39 -39 -39 -39 -40 -40 -39 -39 -39 -39 -38 -38 -38 -37 -37 -37 -37 -37 -37 -37 -37 -38 -38 -38 -38 -38 -38 -38 -37
-38 -38 -38 -39 -39 -39 -39 -39 -39 -39 -39 -39 -39 -39 -40 -39 -39 -39 -40 -39 -39 -39 -39 -38 -38 -38 -38 -37 -37 -37 -37 -37 -37 -37 -37 -37 -38 -38 -38 -38 -38 -38 -38

GFSGL_500_temp_048.txt.gz
Temp
-14 -14 -14 -15 -15 -16 -16 -16 -17 -17 -17 -18 -18 -18 -19 -19 -19 -19 -19 -19 -20 -21 -22 -23 -23 -23 -24 -25 -25 -25 -26 -26 -26 -25 -26 -25 -25 -25 -25 -26 -25 -24 -24
-14 -15 -15 -16 -16 -17 -17 -17 -17 -18 -18 -18 -19 -19 -19 -20 -20 -20 -20 -21 -22 -23 -23 -24 -24 -25 -25 -25 -26 -27 -28 -28 -29 -28 -28 -28 -28 -27 -27 -27 -27 -27 -26
-15 -16 -16 -16 -17 -17 -17 -18 -18 -18 -19 -19 -19 -20 -20 -20 -20 -21 -22 -23 -23 -24 -25 -25 -25 -26 -26 -27 -28 -29 -30 -30 -30 -30 -29 -30 -29 -29 -29 -29 -28 -28 -28
-16 -16 -17 -17 -17 -18 -18 -18 -19 -19 -19 -20 -20 -20 -21 -21 -22 -23 -23 -24 -25 -26 -26 -26 -27 -28 -29 -29 -30 -30 -31 -31 -31 -31 -30 -30 -30 -30 -29 -29 -29 -29 -29
-17 -17 -17 -18 -18 -18 -19 -19 -20 -20 -20 -20 -21 -21 -22 -23 -23 -24 -24 -25 -26 -26 -27 -28 -29 -30 -30 -31 -31 -31 -31 -31 -31 -31 -30 -30 -30 -30 -30 -29 -29 -29 -29
-17 -18 -18 -18 -19 -19 -20 -20 -20 -21 -21 -21 -21 -22 -23 -24 -24 -25 -26 -26 -27 -27 -28 -30 -30 -31 -31 -32 -32 -32 -32 -31 -31 -31 -31 -31 -31 -32 -31 -31 -30 -30 -29
-18 -18 -19 -19 -20 -20 -20 -21 -21 -21 -21 -22 -23 -24 -24 -25 -26 -27 -27 -27 -28 -29 -30 -31 -31 -32 -32 -32 -32 -32 -32 -33 -33 -33 -33 -33 -32 -32 -31 -31 -31 -31 -31
-19 -19 -20 -20 -21 -21 -21 -21 -22 -22 -23 -24 -25 -25 -26 -26 -27 -27 -28 -28 -30 -31 -31 -32 -32 -33 -33 -33 -33 -33 -33 -33 -34 -34 -34 -33 -33 -32 -32 -32 -32 -32 -32
-20 -20 -21 -21 -21 -22 -22 -22 -23 -24 -25 -25 -26 -26 -27 -28 -28 -28 -29 -30 -31 -32 -32 -33 -33 -34 -34 -34 -34 -34 -34 -34 -34 -34 -34 -34 -33 -33 -33 -33 -33 -33 -32
-21 -21 -21 -22 -22 -22 -23 -24 -25 -25 -26 -26 -27 -27 -28 -29 -29 -30 -31 -32 -32 -33 -33 -34 -35 -35 -35 -35 -35 -35 -34 -34 -35 -34 -35 -34 -34 -34 -34 -34 -34 -33 -33
-21 -21 -22 -23 -23 -24 -24 -25 -26 -26 -26 -27 -28 -28 -29 -29 -30 -31 -32 -33 -34 -34 -35 -35 -36 -36 -36 -36 -36 -36 -35 -35 -35 -35 -35 -35 -35 -35 -35 -35 -34 -33 -33
-22 -23 -23 -24 -24 -25 -25 -26 -26 -27 -28 -28 -28 -29 -29 -31 -32 -33 -34 -34 -35 -36 -36 -36 -36 -37 -37 -37 -37 -37 -37 -37 -37 -37 -36 -36 -35 -35 -35 -35 -34 -34 -33
-23 -24 -24 -25 -25 -25 -26 -26 -27 -28 -29 -29 -29 -30 -31 -32 -33 -34 -35 -36 -36 -36 -37 -37 -37 -38 -38 -38 -38 -38 -39 -39 -39 -38 -37 -37 -36 -36 -35 -35 -34 -34 -33
-24 -24 -25 -25 -26 -26 -27 -28 -29 -29 -29 -30 -30 -31 -33 -34 -35 -35 -36 -36 -36 -37 -37 -37 -38 -38 -38 -38 -38 -39 -39 -40 -39 -38 -38 -37 -37 -36 -35 -35 -34 -34 -33
-25 -25 -26 -26 -27 -28 -29 -29 -29 -30 -30 -31 -32 -33 -34 -35 -36 -36 -36 -37 -37 -37 -37 -38 -38 -38 -38 -38 -39 -40 -40 -40 -40 -39 -38 -37 -37 -36 -36 -35 -35 -34 -34
-26 -26 -27 -28 -29 -29 -29 -30 -30 -31 -32 -32 -34 -35 -35 -36 -36 -37 -37 -37 -37 -37 -38 -38 -38 -38 -38 -39 -40 -40 -40 -40 -40 -39 -38 -37 -37 -37 -36 -36 -35 -35 -34
-27 -28 -28 -29 -29 -30 -30 -31 -32 -32 -33 -34 -35 -35 -36 -36 -37 -37 -37 -37 -38 -38 -38 -38 -39 -38 -39 -40 -40 -40 -40 -40 -40 -38 -38 -37 -37 -37 -37 -36 -36 -36 -36
-28 -28 -29 -30 -30 -31 -31 -32 -32 -33 -34 -35 -35 -36 -36 -37 -37 -37 -37 -38 -38 -38 -38 -39 -39 -38 -39 -40 -40 -40 -40 -40 -39 -38 -38 -38 -37 -37 -37 -37 -37 -36 -36
-29 -30 -30 -31 -31 -32 -32 -33 -33 -34 -35 -35 -36 -36 -37 -37 -37 -38 -38 -38 -38 -39 -39 -39 -39 -39 -39 -39 -40 -40 -40 -40 -39 -38 -38 -38 -37 -37 -37 -37 -37 -37 -37
-31 -31 -32 -32 -32 -33 -33 -34 -34 -35 -36 -36 -36 -37 -37 -37 -38 -38 -38 -38 -39 -38 -38 -39 -39 -39 -39 -39 -39 -40 -40 -40 -39 -38 -38 -38 -37 -37 -37 -37 -37 -37 -37
-32 -32 -32 -32 -33 -33 -34 -35 -35 -36 -36 -37 -37 -37 -37 -38 -38 -39 -39 -39 -38 -39 -39 -39 -39 -40 -40 -39 -39 -39 -40 -39 -38 -38 -38 -38 -37 -37 -37 -37 -37 -37 -37
-33 -33 -33 -34 -34 -35 -35 -36 -36 -37 -37 -37 -37 -37 -38 -38 -39 -38 -38 -38 -38 -39 -39 -39 -39 -40 -40 -40 -39 -39 -39 -39 -38 -38 -38 -38 -37 -37 -37 -38 -38 -37 -37
-33 -34 -34 -35 -35 -36 -36 -37 -37 -37 -37 -38 -38 -38 -39 -39 -39 -38 -38 -39 -39 -39 -39 -39 -40 -40 -40 -40 -39 -39 -39 -38 -38 -38 -38 -38 -37 -37 -38 -38 -38 -38 -37
-35 -35 -35 -36 -36 -37 -37 -37 -37 -38 -38 -38 -39 -39 -39 -39 -39 -39 -39 -39 -39 -39 -39 -40 -40 -40 -40 -39 -39 -39 -38 -38 -38 -38 -38 -38 -37 -37 -38 -38 -38 -38 -38
-36 -36 -36 -37 -37 -37 -37 -38 -38 -39 -39 -39 -39 -39 -39 -39 -39 -39 -39 -39 -39 -39 -40 -40 -40 -40 -39 -39 -39 -38 -38 -38 -38 -38 -38 -38 -38 -38 -38 -38 -38 -38 -38
-37 -37 -37 -37 -38 -38 -39 -39 -39 -40 -39 -39 -39 -39 -39 -39 -39 -39 -39 -39 -40 -40 -40 -40 -40 -39 -39 -39 -38 -38 -38 -38 -38 -38 -38 -38 -38 -38 -38 -38 -38 -38 -38